Location: Ferchesar
(52.6477°N, 12.4298°E)
Time: 01:29:25
(UTC+01:00)

Transit 2A - Pass Details

Date: 09 December 2021
Orbit: 591 x 967 km, 66.7° (Epoch: 17 January)

Event Time Altitude Azimuth Distance (km) Brightness Sun altitude
Exits shadow 03:52:06 22° 18° (NNE) 1,976 8.3 -37.6°
Drops below altitude 10° 03:56:06 10° 56° (NE) 2,713 9.5 -37.0°
Sets 03:59:16 0° 71° (ENE) 3,643 10.5 -36.5°
